Overview Statistics Trail Chart Weather Telemetry Raw packets
 

This is the latest recevied weather packets stored in our database for station/object KD2FKI. If no packets are shown the sender has not sent any weather packets the latest 10 day(s).

<< 30 31 32 33 34 35 36 >>
Time Temp. Humidity Pressure Rain* Wind** Luminosity Snow
1777740635 14.44° C 44% - 0 mm - - -
1777740068 15° C 45% - 0 mm - - -
1777739430 15.56° C 44% - 0 mm - - -
1777738840 15.56° C 43% - 0 mm - - -
1777738246 15° C 49% - 0 mm - - -
1777737636 13.33° C 52% - 0 mm - - -
1777737044 13.33° C 52% - 0 mm - - -
1777736433 13.33° C 54% - 0 mm - - -
1777735841 12.78° C 54% - 0 mm - - -
1777735232 12.78° C 55% - 0 mm - - -
1777734639 12.78° C 56% - 0 mm - - -
1777734047 12.22° C 56% - 0 mm - - -
1777733436 12.22° C 57% - 0 mm - - -
1777732864 11.67° C 59% - 0 mm - - -
1777732233 11.67° C 60% - 0 mm - - -
1777731644 11.11° C 63% - 0 mm - - -
1777731031 10.56° C 63% - 0 mm - - -
1777730439 10.56° C 64% - 0 mm - - -
1777729847 10° C 64% - 0 mm - - -
1777729238 10° C 66% - 0 mm - - -
1777728644 10° C 67% - 0 mm - - -
1777728036 9.44° C 67% - 0 mm - - -
1777727442 9.44° C 66% - 0 mm - - -
1777726834 9.44° C 68% - 0 mm - - -
1777726260 9.44° C 69% - 0 mm - - -

* Rain latest hour (hover to see other rain measurements)
** Current wind speed in m/s (hover to see current wind gust speed)